Location: ???? ???? ?????
(31.2680°N, 31.7283°E)
Time: 03:31:16
(UTC+00:00)

Cosmos 2084 - Pass Details

Date: 13 July 2020
Orbit: 571 x 612 km, 62.8° (Epoch: 11 August)

Event Time Altitude Azimuth Distance (km) Brightness Sun altitude
Rises 17:54:20 0° 338° (NNW) 2,874 8.0 -11.0°
Reaches altitude 10° 17:56:45 10° 346° (NNW) 1,964 6.9 -11.5°
Maximum altitude 18:00:55 39° 56° (NE) 911 4.2 -12.2°
Enters shadow 18:03:39 19° 116° (ESE) 1,456 4.8 -12.7°
